When you browse on this site, cookies collect data to enhance your experience and personalize the content and advertising you see.
Visit our Privacy Policy to learn more. By continuing to use the site, you agree to this use of cookies and data.
  • In United Kingdom
  • List of Countries
  • For 7 days
  • Water Temperature
  • Satellite Maps
  • Weather Map
  • Weather Widgets
  • user-avatar
    Login

    Hourly Weather Luneville

    Today, 15 December, Saturday

    Time Temperature Precipitation Wind Pressure Humidity
    00:00 -2°C° 0 mm 1 mps 746 mmHg 81%
    01:00 -2°C° 0 mm 1 mps 746 mmHg 81%
    02:00 -2°C° 0 mm 1 mps 746 mmHg 81%
    03:00 -2°C° 0 mm 1 mps 746 mmHg 81%
    04:00 -2°C° 0 mm 1 mps 746 mmHg 81%
    05:00 -3°C° 0 mm 1 mps 746 mmHg 82%
    06:00 -3°C° 0 mm 1 mps 746 mmHg 82%
    07:00 -2°C° 0 mm 1 mps 746 mmHg 78%
    08:00 -1°C° 0 mm 1 mps 746 mmHg 74%
    09:00 -1°C° 0 mm 1 mps 746 mmHg 71%
    10:00 0°C° 0 mm 1 mps 746 mmHg 65%
    11:00 +2°C° 0 mm 1 mps 745 mmHg 59%
    12:00 +2°C° 0 mm 2 mps 745 mmHg 53%
    13:00 +1°C° 0 mm 2 mps 745 mmHg 56%
    14:00 +1°C° 0 mm 2 mps 744 mmHg 58%
    15:00 -1°C° 0 mm 2 mps 744 mmHg 61%
    16:00 -1°C° 0 mm 2 mps 743 mmHg 61%
    17:00 -1°C° 0 mm 2 mps 743 mmHg 62%
    18:00 -2°C° 0 mm 2 mps 743 mmHg 62%
    19:00 -1°C° 0.1 mm 2 mps 742 mmHg 63%
    20:00 -1°C° 0.1 mm 3 mps 742 mmHg 63%
    21:00 -1°C° 0.1 mm 3 mps 741 mmHg 64%
    22:00 0°C° 0.7 mm 3 mps 740 mmHg 70%
    23:00 0°C° 0.7 mm 3 mps 739 mmHg 76%

    Tomorrow, 16 December, Sunday

    Time Temperature Precipitation Wind Pressure Humidity
    00:00 0°C° 0.7 mm 3 mps 739 mmHg 82%
    01:00 0°C° 0.8 mm 3 mps 738 mmHg 85%
    02:00 0°C° 0.8 mm 3 mps 738 mmHg 88%
    03:00 +1°C° 0.8 mm 3 mps 738 mmHg 92%
    04:00 +1°C° 0.2 mm 3 mps 738 mmHg 93%
    05:00 +1°C° 0.2 mm 3 mps 738 mmHg 95%
    06:00 +2°C° 0.2 mm 3 mps 738 mmHg 97%
    07:00 +2°C° 0.1 mm 3 mps 738 mmHg 97%
    08:00 +2°C° 0.1 mm 3 mps 739 mmHg 98%
    09:00 +3°C° 0.1 mm 3 mps 739 mmHg 98%
    10:00 +3°C° 0.1 mm 3 mps 739 mmHg 97%
    11:00 +4°C° 0.1 mm 3 mps 739 mmHg 97%
    12:00 +4°C° 0.1 mm 3 mps 739 mmHg 96%
    13:00 +4°C° 0 mm 3 mps 739 mmHg 96%
    14:00 +4°C° 0 mm 2 mps 739 mmHg 96%
    15:00 +4°C° 0 mm 2 mps 739 mmHg 97%
    16:00 +4°C° 0 mm 2 mps 739 mmHg 97%
    17:00 +3°C° 0 mm 2 mps 739 mmHg 96%
    18:00 +3°C° 0 mm 2 mps 740 mmHg 96%
    19:00 +2°C° 0 mm 2 mps 740 mmHg 96%
    20:00 +3°C° 0 mm 1 mps 740 mmHg 96%
    21:00 +2°C° 0 mm 1 mps 740 mmHg 96%
    22:00 +2°C° 0 mm 1 mps 740 mmHg 95%
    23:00 +2°C° 0 mm 1 mps 740 mmHg 95%

    Day after tomorrow, 17 December, Monday

    Time Temperature Precipitation Wind Pressure Humidity
    00:00 +1°C° 0 mm 2 mps 740 mmHg 95%
    01:00 +1°C° 0 mm 2 mps 740 mmHg 94%
    02:00 +1°C° 0 mm 2 mps 740 mmHg 94%
    03:00 +1°C° 0 mm 2 mps 740 mmHg 93%
    04:00 +1°C° 0 mm 2 mps 740 mmHg 93%
    05:00 +1°C° 0 mm 2 mps 740 mmHg 92%
    06:00 +1°C° 0 mm 3 mps 740 mmHg 92%
    07:00 +1°C° 0.2 mm 3 mps 741 mmHg 92%
    08:00 +2°C° 0.2 mm 3 mps 741 mmHg 93%
    09:00 +3°C° 0.2 mm 4 mps 742 mmHg 94%
    10:00 +3°C° 0.3 mm 4 mps 743 mmHg 94%
    11:00 +3°C° 0.3 mm 5 mps 743 mmHg 94%
    12:00 +3°C° 0.3 mm 5 mps 744 mmHg 94%
    13:00 +3°C° 0.3 mm 5 mps 745 mmHg 93%
    14:00 +3°C° 0.3 mm 5 mps 745 mmHg 93%
    15:00 +3°C° 0.3 mm 5 mps 746 mmHg 93%
    16:00 +3°C° 0.2 mm 5 mps 747 mmHg 93%
    17:00 +3°C° 0.2 mm 4 mps 747 mmHg 94%
    18:00 +3°C° 0.2 mm 4 mps 748 mmHg 95%
    19:00 +2°C° 0 mm 3 mps 748 mmHg 95%
    20:00 +2°C° 0 mm 3 mps 749 mmHg 96%
    21:00 +2°C° 0 mm 2 mps 749 mmHg 96%
    22:00 +2°C° 0 mm 2 mps 749 mmHg 97%
    23:00 +2°C° 0 mm 2 mps 749 mmHg 97%

    18 December, Tuesday

    Time Temperature Precipitation Wind Pressure Humidity
    00:00 +2°C° 0 mm 2 mps 750 mmHg 97%
    01:00 +2°C° 0 mm 2 mps 749 mmHg 97%
    02:00 +2°C° 0 mm 2 mps 749 mmHg 96%
    03:00 +2°C° 0 mm 1 mps 749 mmHg 96%
    04:00 +2°C° 0 mm 1 mps 749 mmHg 96%
    05:00 +2°C° 0 mm 1 mps 748 mmHg 95%
    06:00 +2°C° 0 mm 1 mps 748 mmHg 95%
    07:00 +2°C° 0 mm 1 mps 748 mmHg 93%
    08:00 +2°C° 0 mm 2 mps 748 mmHg 92%
    09:00 +2°C° 0 mm 2 mps 747 mmHg 90%
    10:00 +3°C° 0 mm 2 mps 747 mmHg 86%
    11:00 +4°C° 0 mm 2 mps 746 mmHg 82%
    12:00 +5°C° 0 mm 3 mps 746 mmHg 78%
    13:00 +4°C° 0 mm 3 mps 745 mmHg 80%
    14:00 +4°C° 0 mm 2 mps 744 mmHg 81%
    15:00 +4°C° 0 mm 2 mps 743 mmHg 83%
    16:00 +2°C° 0 mm 3 mps 743 mmHg 81%
    17:00 +2°C° 0 mm 3 mps 742 mmHg 79%
    18:00 +1°C° 0 mm 3 mps 742 mmHg 77%
    19:00 +1°C° 0 mm 3 mps 742 mmHg 75%
    20:00 +1°C° 0 mm 3 mps 742 mmHg 74%
    21:00 +2°C° 0 mm 3 mps 742 mmHg 72%
    22:00 +1°C° 0 mm 4 mps 742 mmHg 73%
    23:00 +3°C° 0 mm 4 mps 742 mmHg 75%

    19 December, Wednesday

    Time Temperature Precipitation Wind Pressure Humidity
    00:00 +3°C° 0 mm 4 mps 742 mmHg 76%
    01:00 +4°C° 0 mm 4 mps 741 mmHg 79%
    02:00 +4°C° 0 mm 4 mps 741 mmHg 83%
    03:00 +4°C° 0 mm 4 mps 741 mmHg 86%
    04:00 +4°C° 0.2 mm 4 mps 741 mmHg 89%
    05:00 +4°C° 0.2 mm 3 mps 741 mmHg 91%
    06:00 +4°C° 0.2 mm 3 mps 741 mmHg 94%
    07:00 +5°C° 0.1 mm 3 mps 742 mmHg 94%
    08:00 +6°C° 0.1 mm 2 mps 742 mmHg 95%
    09:00 +6°C° 0.1 mm 2 mps 742 mmHg 95%
    10:00 +6°C° 0.1 mm 2 mps 742 mmHg 94%
    11:00 +7°C° 0.1 mm 3 mps 742 mmHg 93%
    12:00 +7°C° 0.1 mm 3 mps 742 mmHg 91%
    13:00 +7°C° 0 mm 3 mps 742 mmHg 92%
    14:00 +7°C° 0 mm 3 mps 742 mmHg 93%
    15:00 +6°C° 0 mm 2 mps 742 mmHg 94%
    16:00 +6°C° 0 mm 2 mps 742 mmHg 94%
    17:00 +6°C° 0 mm 2 mps 742 mmHg 95%
    18:00 +5°C° 0 mm 2 mps 742 mmHg 95%
    19:00 +5°C° 0.2 mm 2 mps 742 mmHg 96%
    20:00 +5°C° 0.2 mm 2 mps 742 mmHg 96%
    21:00 +5°C° 0.2 mm 2 mps 742 mmHg 96%
    22:00 +5°C° 0.2 mm 2 mps 742 mmHg 96%
    23:00 +5°C° 0.2 mm 2 mps 742 mmHg 96%

    20 December, Thursday

    Time Temperature Precipitation Wind Pressure Humidity
    00:00 +4°C° 0.2 mm 2 mps 742 mmHg 96%
    01:00 +4°C° 0.3 mm 2 mps 743 mmHg 96%
    02:00 +4°C° 0.3 mm 2 mps 743 mmHg 96%
    03:00 +4°C° 0.3 mm 2 mps 743 mmHg 96%
    04:00 +3°C° 0.4 mm 3 mps 743 mmHg 96%
    05:00 +3°C° 0.4 mm 3 mps 743 mmHg 96%
    06:00 +4°C° 0.4 mm 3 mps 743 mmHg 95%
    07:00 +4°C° 0.1 mm 3 mps 743 mmHg 94%
    08:00 +4°C° 0.1 mm 4 mps 743 mmHg 92%
    09:00 +4°C° 0.1 mm 4 mps 744 mmHg 91%
    10:00 +4°C° 0.1 mm 4 mps 743 mmHg 89%
    11:00 +3°C° 0.1 mm 5 mps 743 mmHg 87%
    12:00 +5°C° 0.1 mm 5 mps 743 mmHg 85%
    13:00 +5°C° 0.2 mm 5 mps 743 mmHg 86%
    14:00 +5°C° 0.2 mm 5 mps 743 mmHg 87%
    15:00 +5°C° 0.2 mm 5 mps 743 mmHg 88%
    16:00 +5°C° 0.7 mm 5 mps 742 mmHg 89%
    17:00 +3°C° 0.7 mm 5 mps 742 mmHg 91%
    18:00 +3°C° 0.7 mm 5 mps 742 mmHg 92%
    19:00 +3°C° 0.9 mm 5 mps 742 mmHg 93%
    20:00 +4°C° 0.9 mm 4 mps 742 mmHg 93%
    21:00 +4°C° 0.9 mm 4 mps 743 mmHg 94%
    22:00 +4°C° 0.1 mm 4 mps 743 mmHg 94%
    23:00 +4°C° 0.1 mm 3 mps 743 mmHg 94%
    Show more